SCOUT B DEB, 29278

Orbit data source: Space-Track

SCOUT B DEB, 29278 is space debris in LEO originally from a launch on Thu, 08 Aug 1968 UTC launched from the Air Force Western Test Range (AFWTR). Debris objects in space refer to the collection of defunct objects orbiting the Earth. Examples of debris include non-operational satellites, rocket bodies, and fragments generated from explosions, collisions, or faulty payload assembly.

Loading next visibility...
Identifier
29278, 1968-066M
Orbit
LEO
Country
Flag of USUS
Related business
Manufacturer
Unknown
Mission
Spacecraft
Bus & Motor
Unknown
Mass
Unknown
Launch date (UTC)
1968-08-08 (58 years ago)
Launch vehicle
Unknown
Launch site
Air Force Western Test Range (AFWTR)
Object type
Payload
Rocket body
Debris
Shape & HBR
Unknown shape, 0.1 m
Radar Cross Section
Small (<0.1 m²)

Expand to show TLE details & history
Last TLE update: 2 months ago

TLE from 2 months ago
0 SCOUT B DEB
1 29278U 68066M   26053.56935442  .00002169  00000-0  12615-2 0  9993
2 29278  80.5782 141.6410 0671440  13.0208 348.7327 13.31348047524181
Epoch: 2026-02-22T13:39Z
TLE epoch observation values (Epoch: 2026-02-22T13:39:52.221Z)
Latitude
-0.00006°
Longitude
144.1977°
Altitude
650.625 km
Speed
7.776 km/s
True Right ascension
09h 26m 33s
True Declination
0° 00' 00"
Sunlit
Object was in full shadow at epoch
Visualization orbit readout
Latitude
Unknown
Longitude
Unknown
Altitude
Unknown
Speed
Unknown
Apparent Right ascension
Unknown
Apparent Declination
Unknown
Sunlit
N/A
Visualization observer readout
Local Sidereal Time
12:13:01
Azimuth
Unknown
Elevation
Unknown
Doppler factor
Unknown
Orbital elements
Apogee altitude
1,643.706 km
Perigee altitude
634.248 km
Semi-major axis
7,517.114 km
Eccentricity
0.06714
Inclination
80.5782°
RAAN
141.641°
Arg. of periapsis
13.0208°
True anomaly
347.09529°
Mean anomaly
348.7327°
Eccentric anomaly
347.92813°
Mean motion
3.33017 °/min
Orbital period
108.1 mins
BSTAR
0.0012615
Loading maneuver chart data...
Computing Atmospheric mass density...
Loading historical data...
Loading historical data...
Loading historical data...
Loading historical data...
Loading historical data...
Loading historical data...
Loading historical data...

Documentation

Showing up to 5 results
|